Torna al catalogo

STARLINK-3972

AttivoComunicazioniVLEO
NORAD 52669·PAYLOAD·🇺🇸 United States

Lanciato May 18, 2022 da Cape Canaveral Space Force Station

Loading…

Prossimi Passaggi (prossime 24 ore)

TLE

AggiornatoSource: CelesTrak SupGP

Epoca: Sep 14, 2026, 22:13 UTC

1 52669C 22053P   26257.92618056 -.00020535  00000+0 -60691-3 0  2577
2 52669  53.1592  13.5970 0001011  55.2847  45.1758 15.34390416    11

Traccia STARLINK-3972 in tempo reale con AllMySat

Download on the App Store